Regional Weather Roundup
Issued by NWS Bismarck, ND

Home | Current Version | Previous Version | Text Only | Print | Product List | Glossary On
Versions: 1 2 3 4 5 6 7 8 9 10 11 12 13 14 15 16 17 18 19 20 21 22 23 24 25 26 27 28 29 30 31 32 33 34 35 36 37 38 39 40 41 42 43 44 45 46 47 48 49 50
000
ASUS43 KBIS 142310
RWRBIS

NWR BROADCAST TEXT
NATIONAL WEATHER SERVICE BISMARCK ND
500 PM CST SUN FEB 14 2016

NOTE: "FAIR" INDICATES FEW OR NO CLOUDS BELOW 12,000 FEET WITH NO
SIGNIFICANT WEATHER AND/OR OBSTRUCTIONS TO VISIBILITY.


CITY           SKY/WX    TMP DP  RH WIND       PRES   REMARKS
WILLISTON      SUNNY     39  30  70 W7        29.70R
MINOT          CLEAR     37  25  61 W9        29.68S
MINOT AFB      CLEAR     35  30  82 W2        29.67S
BISMARCK       CLEAR     43  29  57 NW10      29.72S
DICKINSON      MOSUNNY   39  32  76 NW13      29.70R
GARRISON         N/A     37  30  75 NW12      29.70R
HETTINGER ARPT CLOUDY    40  32  73 W12       29.74R
JAMESTOWN      CLOUDY    28  24  85 N7        29.70S
BEACH          FAIR      39  36  87 W13       29.76R
CARRINGTON     CLOUDY    28  28 100 NW7       29.72R
LINTON         FAIR      37  34  87 NW7       29.74R
OAKES          CLOUDY    23  21  93 S9        29.74S WCI  13
TIOGA          MOCLDY    32  32 100 W13       29.73S
$$

CITY           SKY/WX    TMP DP  RH WIND       PRES   REMARKS
GRAND FORKS    CLOUDY    21  15  78 S13       29.74S WCI   9
GRAND FORKS AF CLOUDY    22  18  83 S5        29.72S WCI  16
DEVILS LAKE    CLOUDY    26  23  88 W10       29.69S WCI  16
FARGO          CLOUDY    20  15  81 S14       29.77S WCI   7
GWINNER        CLOUDY    23  21  93 SW13      29.75F WCI  11
ROLLA          FAIR      23  23 100 S5        29.67R WCI  17
WALHALLA       FAIR      23  23 100 W7        29.71R WCI  15
$$

CITY           SKY/WX    TMP DP  RH WIND       PRES   REMARKS
ABERDEEN       CLOUDY    27  22  81 S7        29.76S WCI  19
MOBRIDGE       CLOUDY    38  31  76 W3        29.71S
BUFFALO          N/A     38  33  82 W14       29.70R
RAPID CITY     CLOUDY    41  34  76 N12       29.78S
GLASGOW        SUNNY     45  30  55 NW12      29.74R
SIDNEY         CLOUDY    43  30  61 W5        29.72R
WOLF POINT     PTSUNNY   45  32  60 W7        29.72R
GLENDIVE       SUNNY     45  28  53 W16       29.75S
MILES CITY     MOSUNNY   47  26  44 NW23      29.78R
BAKER          SUNNY     39  37  92 W7        29.76
$$

CITY           SKY/WX    TMP DP  RH WIND       PRES   REMARKS
BILLINGS       MOSUNNY   52  16  24 NW31G39   29.84R
GREAT FALLS    CLOUDY    50  15  24 W24G32    29.87R
REGINA         PTCLDY    39  30  70 W12       29.66R
ESTEVAN        CLOUDY    32  27  80 W7        29.67R
$$




USA.gov is the U.S. government's official web portal to all federal, state and local government web resources and services.